Location: Unspecified
(0.0000°N, 0.0000°E)
Time: 16:26:10
(UTC+00:00)

Vanguard 2 Rocket - Pass Details

Date: 26 November 2019
Orbit: 554 x 3326 km, 32.9° (Epoch: 13 December)

Event Time Altitude Azimuth Distance (km) Brightness Sun altitude
Rises 04:38:01 0° 332° (NNW) 3,467 - -16.1°
Exits shadow 04:39:53 - 341° (NNW) 2,956 9.1 -15.7°
Reaches altitude 10° 04:40:33 10° 345° (NNW) 2,800 9.1 -15.5°
Maximum altitude 04:46:24 28° 42° (NE) 2,378 9.2 -14.2°
Drops below altitude 10° 04:55:30 10° 96° (E) 4,482 11.8 -12.0°
Sets 05:00:50 0° 106° (ESE) 6,008 13.3 -10.8°
